Location: San Gennaro Vesuviano
(40.8833°N, 14.5333°E)
Time: 09:38:10
(UTC+00:00)

SL-4 R/B - Pass Details

Date: 22 April 2021
Orbit: 427 x 663 km, 51.6° (Epoch: 11 May)

Event Time Altitude Azimuth Distance (km) Brightness Sun altitude
Rises 19:45:04 0° 247° (WSW) 2,744 6.0 -20.2°
Reaches altitude 10° 19:47:17 10° 252° (WSW) 1,889 5.2 -20.5°
Maximum altitude 19:51:32 53° 330° (NNW) 750 3.0 -21.1°
Drops below altitude 10° 19:56:06 10° 48° (NE) 2,024 4.8 -21.8°
Enters shadow 19:57:59 - 52° (NE) 2,740 5.5 -22.0°
